• In Hungary
  • List of Countries
  • For 7 days
  • Water Temperature
  • Satellite Maps
  • Weather Map
  • News
  • Weather Widgets
  • user-avatar
    Login

    Hourly Weather Makas

    Today, 24 February, Saturday

    Time Temperature Precipitation Wind Pressure Humidity
    00:00 +21°C° 0 mm 1 mps 676 mmHg 91%
    01:00 +20°C° 0 mm 1 mps 675 mmHg 90%
    02:00 +20°C° 0 mm 1 mps 675 mmHg 90%
    03:00 +20°C° 0 mm 1 mps 675 mmHg 89%
    04:00 +19°C° 0 mm 1 mps 675 mmHg 88%
    05:00 +20°C° 0 mm 1 mps 675 mmHg 86%
    06:00 +20°C° 0 mm 1 mps 675 mmHg 84%
    07:00 +20°C° 0 mm 1 mps 675 mmHg 82%
    08:00 +23°C° 0 mm 1 mps 676 mmHg 71%
    09:00 +26°C° 0 mm 1 mps 677 mmHg 60%
    10:00 +30°C° 0 mm 1 mps 678 mmHg 48%
    11:00 +30°C° 0.1 mm 1 mps 677 mmHg 49%
    12:00 +31°C° 0.1 mm 2 mps 677 mmHg 49%
    13:00 +31°C° 0.1 mm 2 mps 676 mmHg 49%
    14:00 +30°C° 0.6 mm 2 mps 675 mmHg 54%
    15:00 +29°C° 0.6 mm 2 mps 675 mmHg 59%
    16:00 +29°C° 0.6 mm 1 mps 674 mmHg 65%
    17:00 +27°C° 0.4 mm 1 mps 674 mmHg 72%
    18:00 +25°C° 0.4 mm 1 mps 674 mmHg 80%
    19:00 +23°C° 0.4 mm 1 mps 674 mmHg 88%
    20:00 +22°C° 0.2 mm 1 mps 674 mmHg 85%
    21:00 +21°C° 0.2 mm 1 mps 675 mmHg 83%
    22:00 +21°C° 0.2 mm 1 mps 675 mmHg 81%
    23:00 +20°C° 0 mm 1 mps 675 mmHg 77%

    Tomorrow, 25 February, Sunday

    Time Temperature Precipitation Wind Pressure Humidity
    00:00 +20°C° 0 mm 1 mps 675 mmHg 74%
    01:00 +19°C° 0 mm 1 mps 675 mmHg 70%
    02:00 +19°C° 0 mm 1 mps 675 mmHg 67%
    03:00 +19°C° 0 mm 1 mps 675 mmHg 64%
    04:00 +19°C° 0 mm 1 mps 675 mmHg 61%
    05:00 +19°C° 0.1 mm 1 mps 675 mmHg 61%
    06:00 +19°C° 0.1 mm 1 mps 675 mmHg 61%
    07:00 +19°C° 0.1 mm 1 mps 676 mmHg 60%
    08:00 +23°C° 0 mm 1 mps 676 mmHg 55%
    09:00 +26°C° 0 mm 1 mps 677 mmHg 50%
    10:00 +30°C° 0 mm 1 mps 678 mmHg 45%
    11:00 +30°C° 0.2 mm 1 mps 678 mmHg 47%
    12:00 +31°C° 0.2 mm 2 mps 677 mmHg 49%
    13:00 +31°C° 0.2 mm 2 mps 676 mmHg 52%
    14:00 +30°C° 0.9 mm 2 mps 675 mmHg 58%
    15:00 +29°C° 0.9 mm 1 mps 675 mmHg 64%
    16:00 +28°C° 0.9 mm 1 mps 674 mmHg 70%
    17:00 +26°C° 1.3 mm 1 mps 674 mmHg 77%
    18:00 +24°C° 1.3 mm 1 mps 674 mmHg 83%
    19:00 +23°C° 1.3 mm 1 mps 674 mmHg 90%
    20:00 +22°C° 1 mm 1 mps 675 mmHg 90%
    21:00 +22°C° 1 mm 1 mps 676 mmHg 90%
    22:00 +21°C° 1 mm 1 mps 676 mmHg 91%
    23:00 +21°C° 0.8 mm 1 mps 676 mmHg 90%

    Day after tomorrow, 26 February, Monday

    Time Temperature Precipitation Wind Pressure Humidity
    00:00 +21°C° 0.8 mm 1 mps 676 mmHg 89%
    01:00 +21°C° 0.8 mm 1 mps 676 mmHg 88%
    02:00 +20°C° 0.6 mm 1 mps 676 mmHg 87%
    03:00 +20°C° 0.6 mm 1 mps 675 mmHg 87%
    04:00 +20°C° 0.6 mm 1 mps 675 mmHg 86%
    05:00 +20°C° 0.3 mm 1 mps 675 mmHg 84%
    06:00 +20°C° 0.3 mm 1 mps 676 mmHg 82%
    07:00 +20°C° 0.3 mm 1 mps 676 mmHg 80%
    08:00 +23°C° 0.3 mm 1 mps 677 mmHg 75%
    09:00 +25°C° 0.3 mm 1 mps 678 mmHg 70%
    10:00 +27°C° 0.3 mm 1 mps 679 mmHg 65%
    11:00 +28°C° 0.3 mm 1 mps 678 mmHg 63%
    12:00 +28°C° 0.3 mm 1 mps 677 mmHg 62%
    13:00 +29°C° 0.3 mm 1 mps 677 mmHg 61%
    14:00 +28°C° 0.6 mm 1 mps 676 mmHg 67%
    15:00 +27°C° 0.6 mm 1 mps 675 mmHg 73%
    16:00 +26°C° 0.6 mm 1 mps 674 mmHg 79%
    17:00 +25°C° 0.6 mm 1 mps 674 mmHg 84%
    18:00 +24°C° 0.6 mm 1 mps 674 mmHg 90%
    19:00 +20°C° 0.6 mm 0 mps 675 mmHg 95%
    20:00 +22°C° 0.2 mm 1 mps 675 mmHg 95%
    21:00 +22°C° 0.2 mm 1 mps 676 mmHg 95%
    22:00 +21°C° 0.2 mm 1 mps 676 mmHg 94%
    23:00 +21°C° 0 mm 1 mps 676 mmHg 93%

    27 February, Tuesday

    Time Temperature Precipitation Wind Pressure Humidity
    00:00 +21°C° 0 mm 1 mps 675 mmHg 92%
    01:00 +21°C° 0 mm 1 mps 675 mmHg 91%
    02:00 +20°C° 0.1 mm 1 mps 675 mmHg 90%
    03:00 +20°C° 0.1 mm 1 mps 675 mmHg 90%
    04:00 +20°C° 0.1 mm 1 mps 674 mmHg 89%
    05:00 +20°C° 0.2 mm 1 mps 675 mmHg 88%
    06:00 +20°C° 0.2 mm 1 mps 675 mmHg 86%
    07:00 +20°C° 0.2 mm 1 mps 676 mmHg 85%
    08:00 +23°C° 0.3 mm 1 mps 676 mmHg 77%
    09:00 +26°C° 0.3 mm 1 mps 677 mmHg 69%
    10:00 +29°C° 0.3 mm 1 mps 678 mmHg 62%
    11:00 +28°C° 0.6 mm 1 mps 677 mmHg 64%
    12:00 +28°C° 0.6 mm 1 mps 677 mmHg 67%
    13:00 +28°C° 0.6 mm 1 mps 676 mmHg 70%
    14:00 +27°C° 1 mm 1 mps 675 mmHg 74%
    15:00 +26°C° 1 mm 1 mps 674 mmHg 79%
    16:00 +26°C° 1 mm 1 mps 674 mmHg 84%
    17:00 +25°C° 0.5 mm 1 mps 674 mmHg 87%
    18:00 +22°C° 0.5 mm 0 mps 674 mmHg 90%
    19:00 +21°C° 0.5 mm 0 mps 674 mmHg 93%
    20:00 +22°C° 0.2 mm 1 mps 674 mmHg 93%
    21:00 +22°C° 0.2 mm 1 mps 675 mmHg 93%
    22:00 +21°C° 0.2 mm 1 mps 675 mmHg 93%
    23:00 +21°C° 0 mm 1 mps 675 mmHg 92%

    28 February, Wednesday

    Time Temperature Precipitation Wind Pressure Humidity
    00:00 +21°C° 0 mm 1 mps 675 mmHg 91%
    01:00 +21°C° 0 mm 1 mps 674 mmHg 90%
    02:00 +21°C° 0 mm 1 mps 674 mmHg 89%
    03:00 +21°C° 0 mm 1 mps 674 mmHg 88%
    04:00 +20°C° 0 mm 1 mps 674 mmHg 86%
    05:00 +20°C° 0.2 mm 1 mps 674 mmHg 85%
    06:00 +20°C° 0.2 mm 1 mps 674 mmHg 84%
    07:00 +20°C° 0.2 mm 1 mps 675 mmHg 82%
    08:00 +23°C° 0.1 mm 1 mps 676 mmHg 74%
    09:00 +26°C° 0.1 mm 1 mps 677 mmHg 65%
    10:00 +29°C° 0.1 mm 1 mps 677 mmHg 56%
    11:00 +29°C° 0.5 mm 1 mps 677 mmHg 60%
    12:00 +29°C° 0.5 mm 1 mps 676 mmHg 63%
    13:00 +29°C° 0.5 mm 1 mps 675 mmHg 66%
    14:00 +28°C° 1 mm 1 mps 674 mmHg 69%
    15:00 +28°C° 1 mm 1 mps 674 mmHg 72%
    16:00 +27°C° 1 mm 1 mps 673 mmHg 75%
    17:00 +26°C° 0.7 mm 1 mps 673 mmHg 80%
    18:00 +24°C° 0.7 mm 1 mps 673 mmHg 86%
    19:00 +23°C° 0.7 mm 1 mps 673 mmHg 91%
    20:00 +23°C° 1.2 mm 1 mps 674 mmHg 92%
    21:00 +22°C° 1.2 mm 1 mps 674 mmHg 93%
    22:00 +22°C° 1.2 mm 1 mps 675 mmHg 95%
    23:00 +22°C° 0.9 mm 1 mps 675 mmHg 94%

    1 March, Thursday

    Time Temperature Precipitation Wind Pressure Humidity
    00:00 +22°C° 0.9 mm 1 mps 674 mmHg 94%
    01:00 +21°C° 0.9 mm 1 mps 674 mmHg 93%
    02:00 +21°C° 0.3 mm 1 mps 674 mmHg 92%
    03:00 +21°C° 0.3 mm 1 mps 674 mmHg 91%
    04:00 +21°C° 0.3 mm 1 mps 674 mmHg 90%
    05:00 +21°C° 0.4 mm 1 mps 674 mmHg 89%
    06:00 +21°C° 0.4 mm 1 mps 675 mmHg 88%
    07:00 +21°C° 0.4 mm 1 mps 675 mmHg 86%
    08:00 +23°C° 0.2 mm 1 mps 676 mmHg 82%
    09:00 +24°C° 0.2 mm 1 mps 676 mmHg 78%
    10:00 +25°C° 0.2 mm 1 mps 677 mmHg 74%
    11:00 +26°C° 0.7 mm 1 mps 676 mmHg 77%
    12:00 +26°C° 0.7 mm 1 mps 676 mmHg 80%
    13:00 +26°C° 0.7 mm 1 mps 675 mmHg 83%
    14:00 +26°C° 0.8 mm 1 mps 675 mmHg 82%
    15:00 +26°C° 0.8 mm 1 mps 674 mmHg 81%
    16:00 +24°C° 0.8 mm 0 mps 674 mmHg 80%
    17:00 +25°C° 0.9 mm 1 mps 674 mmHg 84%
    18:00 +24°C° 0.9 mm 1 mps 674 mmHg 88%
    19:00 +23°C° 0.9 mm 1 mps 675 mmHg 92%
    20:00 +22°C° 0.7 mm 1 mps 675 mmHg 91%
    21:00 +22°C° 0.7 mm 1 mps 675 mmHg 91%
    22:00 +22°C° 0.7 mm 1 mps 675 mmHg 91%
    23:00 +22°C° 0.3 mm 1 mps 675 mmHg 90%
    Show more